| time (UTC) | temp F | wind direction | speed MPH | gust MPH | rain 1hr in | rain 24hr in | rain mn in | humidity % | barometer mb |
| 20260904034604 | 81 | 0 | 0.0 | 0.0 | 0.00 | 0.08 | 0.08 | 88 | 1014.2 |
| 20260904033111 | 81 | 0 | 0.0 | 0.0 | 0.00 | 0.08 | 0.08 | 88 | 1014.2 |
| 20260904031603 | 81 | 0 | 0.0 | 2.0 | 0.00 | 0.08 | 0.08 | 88 | 1014.0 |
| 20260904024616 | 81 | 0 | 0.0 | 2.0 | 0.00 | 0.08 | 0.08 | 89 | 1013.9 |
| 20260904023114 | 81 | 0 | 0.0 | 0.0 | 0.00 | 0.08 | 0.08 | 89 | 1013.8 |
| 20260904021602 | 81 | 0 | 0.0 | 0.0 | 0.00 | 0.08 | 0.08 | 89 | 1013.8 |
| 20260904014602 | 81 | 0 | 0.0 | 3.0 | 0.00 | 0.08 | 0.08 | 89 | 1013.3 |
| 20260904013101 | 80 | 0 | 0.0 | 0.0 | 0.00 | 0.08 | 0.08 | 89 | 1013.3 |
| 20260904011614 | 80 | 0 | 0.0 | 0.0 | 0.00 | 0.08 | 0.08 | 90 | 1013.2 |
| 20260904010112 | 80 | 0 | 0.0 | 0.0 | 0.00 | 0.08 | 0.08 | 90 | 1013.0 |
| 20260904004604 | 80 | 0 | 0.0 | 0.0 | 0.00 | 0.08 | 0.08 | 91 | 1013.0 |
| 20260904003102 | 80 | 0 | 0.0 | 0.0 | 0.00 | 0.08 | 0.08 | 91 | 1013.0 |
| 20260904001604 | 80 | 0 | 0.0 | 0.0 | 0.00 | 0.08 | 0.08 | 91 | 1013.2 |
| 20260904000105 | 80 | 0 | 0.0 | 0.0 | 0.00 | 0.08 | 0.08 | 91 | 1013.2 |
| 20260903234606 | 80 | 0 | 0.0 | 2.0 | 0.00 | 0.08 | 0.08 | 91 | 1013.2 |
| 20260903233102 | 79 | 0 | 0.0 | 0.0 | 0.00 | 0.08 | 0.08 | 91 | 1013.3 |
| 20260903231603 | 79 | 0 | 0.0 | 0.0 | 0.00 | 0.08 | 0.08 | 91 | 1013.4 |
| 20260903230103 | 79 | 0 | 0.0 | 2.0 | 0.00 | 0.08 | 0.08 | 91 | 1013.3 |
| 20260903224602 | 79 | 165 | 1.0 | 3.0 | 0.00 | 0.08 | 0.08 | 91 | 1013.5 |
| 20260903223108 | 79 | 165 | 1.0 | 2.0 | 0.00 | 0.08 | 0.08 | 92 | 1013.4 |
| 20260903221607 | 79 | 165 | 1.0 | 2.0 | 0.00 | 0.08 | 0.08 | 92 | 1013.4 |
| 20260903220123 | 79 | 165 | 0.0 | 3.0 | 0.00 | 0.08 | 0.08 | 93 | 1013.5 |
| 20260903214604 | 79 | 165 | 1.0 | 3.0 | 0.00 | 0.08 | 0.08 | 93 | 1013.8 |
| 20260903213105 | 79 | 165 | 1.0 | 2.0 | 0.02 | 0.08 | 0.08 | 93 | 1014.4 |
| 20260903211604 | 78 | 0 | 0.0 | 0.0 | 0.04 | 0.08 | 0.08 | 93 | 1014.3 |
| 20260903210110 | 78 | 0 | 0.0 | 0.0 | 0.06 | 0.08 | 0.08 | 92 | 1014.4 |
| 20260903204603 | 78 | 0 | 0.0 | 0.0 | 0.06 | 0.08 | 0.08 | 92 | 1014.4 |
| 20260903203133 | 78 | 0 | 0.0 | 1.0 | 0.05 | 0.06 | 0.06 | 90 | 1014.5 |
| 20260903201603 | 78 | 0 | 0.0 | 2.0 | 0.04 | 0.04 | 0.04 | 91 | 1014.7 |
| 20260903194605 | 79 | 165 | 0.0 | 1.0 | 0.02 | 0.02 | 0.02 | 88 | 1014.5 |
| 20260903193108 | 81 | 0 | 0.0 | 2.0 | 0.01 | 0.01 | 0.01 | 83 | 1014.7 |
| 20260903191604 | 80 | 165 | 1.0 | 3.0 | 0.00 | 0.00 | 0.00 | 82 | 1015.4 |
| 20260903190103 | 81 | 165 | 1.0 | 4.0 | 0.00 | 0.00 | 0.00 | 78 | 1014.7 |
| 20260903184602 | 81 | 165 | 3.0 | 6.0 | 0.00 | 0.00 | 0.00 | 79 | 1014.7 |
| 20260903183102 | 84 | 165 | 4.0 | 7.0 | 0.00 | 0.00 | 0.00 | 71 | 1014.8 |
| 20260903181602 | 86 | 165 | 2.0 | 8.0 | 0.00 | 0.00 | 0.00 | 68 | 1014.8 |
| 20260903180106 | 90 | 0 | 0.0 | 0.0 | 0.00 | 0.00 | 0.00 | 67 | 1014.7 |
| 20260903174604 | 92 | 0 | 0.0 | 4.0 | 0.00 | 0.00 | 0.00 | 65 | 1014.8 |
| 20260903173103 | 92 | 166 | 0.0 | 3.0 | 0.00 | 0.00 | 0.00 | 63 | 1014.6 |
| 20260903171614 | 92 | 166 | 1.0 | 5.0 | 0.00 | 0.00 | 0.00 | 65 | 1014.7 |
| 20260903170108 | 90 | 166 | 0.0 | 3.0 | 0.00 | 0.00 | 0.00 | 67 | 1015.0 |
| 20260903164642 | 91 | 166 | 1.0 | 9.0 | 0.00 | 0.00 | 0.00 | 67 | 1015.2 |
| 20260903163106 | 92 | 167 | 1.0 | 5.0 | 0.00 | 0.00 | 0.00 | 66 | 1015.3 |
| 20260903161603 | 91 | 0 | 1.0 | 5.0 | 0.00 | 0.00 | 0.00 | 69 | 1015.2 |
| 20260903160110 | 89 | 167 | 0.0 | 4.0 | 0.00 | 0.00 | 0.00 | 72 | 1015.2 |
| 20260903154607 | 88 | 167 | 0.0 | 4.0 | 0.00 | 0.00 | 0.00 | 75 | 1015.3 |
| 20260903153112 | 87 | 0 | 0.0 | 2.0 | 0.00 | 0.00 | 0.00 | 78 | 1015.3 |
| 20260903151601 | 87 | 167 | 0.0 | 4.0 | 0.00 | 0.00 | 0.00 | 77 | 1015.2 |
| 20260903150104 | 86 | 0 | 0.0 | 4.0 | 0.00 | 0.00 | 0.00 | 80 | 1015.4 |
| 20260903144614 | 85 | 167 | 0.0 | 2.0 | 0.00 | 0.00 | 0.00 | 82 | 1015.5 |
| 20260903143104 | 84 | 0 | 0.0 | 3.0 | 0.00 | 0.00 | 0.00 | 83 | 1015.4 |
| 20260903141606 | 84 | 0 | 0.0 | 2.0 | 0.00 | 0.00 | 0.00 | 84 | 1015.5 |
| 20260903140106 | 83 | 0 | 0.0 | 1.0 | 0.00 | 0.00 | 0.00 | 85 | 1015.3 |
| 20260903134618 | 82 | 0 | 0.0 | 0.0 | 0.00 | 0.00 | 0.00 | 87 | 1015.4 |
| 20260903133105 | 82 | 0 | 0.0 | 2.0 | 0.00 | 0.00 | 0.00 | 88 | 1015.4 |
| 20260903131603 | 81 | 0 | 0.0 | 1.0 | 0.00 | 0.00 | 0.00 | 89 | 1015.3 |
| 20260903130107 | 81 | 0 | 0.0 | 1.0 | 0.00 | 0.00 | 0.00 | 89 | 1015.1 |
| 20260903124622 | 81 | 167 | 0.0 | 2.0 | 0.00 | 0.00 | 0.00 | 89 | 1014.8 |
| 20260903123102 | 81 | 167 | 0.0 | 1.0 | 0.00 | 0.00 | 0.00 | 89 | 1014.7 |
| 20260903121612 | 81 | 0 | 0.0 | 0.0 | 0.00 | 0.00 | 0.00 | 89 | 1014.6 |
| 20260903120110 | 81 | 0 | 0.0 | 2.0 | 0.00 | 0.00 | 0.00 | 86 | 1014.5 |
| 20260903114604 | 81 | 167 | 1.0 | 2.0 | 0.00 | 0.00 | 0.00 | 82 | 1014.5 |
| 20260903113144 | 81 | 167 | 1.0 | 5.0 | 0.00 | 0.00 | 0.00 | 82 | 1014.6 |
| 20260903111601 | 82 | 167 | 1.0 | 4.0 | 0.00 | 0.00 | 0.00 | 86 | 1014.5 |
| 20260903110109 | 82 | 0 | 0.0 | 3.0 | 0.00 | 0.00 | 0.00 | 85 | 1014.5 |
| 20260903104611 | 82 | 0 | 0.0 | 3.0 | 0.00 | 0.00 | 0.00 | 84 | 1014.4 |
| 20260903103105 | 83 | 167 | 0.0 | 2.0 | 0.00 | 0.00 | 0.00 | 83 | 1014.2 |
| 20260903101603 | 83 | 0 | 0.0 | 3.0 | 0.00 | 0.00 | 0.00 | 83 | 1014.2 |
| 20260903094605 | 83 | 0 | 0.0 | 4.0 | 0.00 | 0.00 | 0.00 | 84 | 1014.2 |
| 20260903093106 | 83 | 0 | 0.0 | 2.0 | 0.00 | 0.00 | 0.00 | 84 | 1014.2 |
| 20260903091613 | 83 | 0 | 0.0 | 3.0 | 0.00 | 0.00 | 0.00 | 83 | 1014.2 |
| 20260903090114 | 83 | 167 | 1.0 | 4.0 | 0.00 | 0.00 | 0.00 | 83 | 1014.1 |
| 20260903084610 | 83 | 167 | 0.0 | 3.0 | 0.00 | 0.00 | 0.00 | 83 | 1014.3 |
| 20260903083112 | 83 | 0 | 1.0 | 3.0 | 0.00 | 0.00 | 0.00 | 83 | 1014.1 |
| 20260903081603 | 83 | 0 | 1.0 | 4.0 | 0.00 | 0.00 | 0.00 | 82 | 1014.0 |
| 20260903080104 | 83 | 167 | 1.0 | 4.0 | 0.00 | 0.00 | 0.00 | 82 | 1014.1 |
| 20260903074601 | 83 | 167 | 1.0 | 5.0 | 0.00 | 0.00 | 0.00 | 82 | 1014.1 |
| 20260903073100 | 83 | 167 | 0.0 | 4.0 | 0.00 | 0.00 | 0.00 | 82 | 1014.1 |
| 20260903071613 | 83 | 167 | 0.0 | 2.0 | 0.00 | 0.00 | 0.00 | 83 | 1014.1 |
| 20260903070106 | 83 | 167 | 0.0 | 3.0 | 0.00 | 0.00 | 0.00 | 83 | 1014.4 |
| 20260903064602 | 83 | 0 | 0.0 | 2.0 | 0.00 | 0.00 | 0.00 | 83 | 1014.7 |
| 20260903063101 | 83 | 0 | 0.0 | 1.0 | 0.00 | 0.00 | 0.00 | 83 | 1014.8 |
| 20260903061605 | 83 | 0 | 0.0 | 0.0 | 0.00 | 0.00 | 0.00 | 83 | 1014.6 |
| 20260903060108 | 84 | 0 | 0.0 | 1.0 | 0.00 | 0.00 | 0.00 | 82 | 1015.0 |
| 20260903054603 | 84 | 0 | 0.0 | 2.0 | 0.00 | 0.00 | 0.00 | 82 | 1015.0 |
| 20260903053101 | 84 | 0 | 0.0 | 0.0 | 0.00 | 0.00 | 0.00 | 81 | 1015.2 |
| 20260903051616 | 84 | 0 | 0.0 | 2.0 | 0.00 | 0.00 | 0.00 | 82 | 1015.5 |
| 20260903050113 | 84 | 167 | 0.0 | 2.0 | 0.00 | 0.00 | 0.00 | 82 | 1015.7 |
| 20260903044602 | 84 | 0 | 0.0 | 0.0 | 0.00 | 0.00 | 0.00 | 82 | 1015.5 |
| 20260903043208 | 84 | 0 | 0.0 | 2.0 | 0.00 | 0.00 | 0.00 | 82 | 1015.4 |
| 20260903041607 | 84 | 167 | 0.0 | 2.0 | 0.00 | 0.00 | 0.00 | 82 | 1015.3 |
| 20260903040105 | 84 | 167 | 0.0 | 2.0 | 0.00 | 0.00 | 0.00 | 81 | 1015.2 |